Regional Weather Roundup
Issued by NWS

Home | Current Version | Previous Version | Text Only | Print | Product List | Glossary Off
Versions: 1 2 3 4 5 6 7 8 9 10 11 12 13 14 15 16 17 18 19 20 21 22 23 24 25 26 27 28 29 30 31 32 33 34 35 36 37 38 39 40 41 42 43 44 45 46 47 48 49 50

000
ASUS44 KMEG 310710
RWRTN
TENNESSEE HOURLY STATE WEATHER ROUNDUP
NATIONAL WEATHER SERVICE MEMPHIS TN
200 AM CDT FRI OCT 31 2014

TNZ002-004-019-021-049-052-054-088>092-310800-
WEST TENNESSEE

CITY           SKY/WX    TMP DP  RH WIND       PRES   REMARKS
MEMPHIS INTL   PTCLDY    55  47  74 NW3       29.98S
NWS MEMPHIS      N/A     52 N/A N/A MISG        N/A
JACKSON        CLOUDY    52  49  89 E5        29.99F
DYERSBURG      CLEAR     52  37  58 NE6       30.01R
UNION CITY     CLOUDY    50  46  87 CALM      29.99F
PARIS          CLOUDY    48  45  87 CALM      30.00F
HUNTINGDON     CLOUDY    49  46  89 CALM      30.01S
LEXINGTON      PTCLDY    46  43  87 W5        30.00S
SAVANNAH       CLOUDY    45  45 100 NW3       30.03R
$$

TNZ008-025-027-028-033-062-065-066-310800-
NORTH MIDDLE TENNESSEE

CITY           SKY/WX    TMP DP  RH WIND       PRES   REMARKS
NASHVILLE      CLOUDY    50  45  83 SE3       30.01S
DICKSON        CLOUDY    48  43  81 CALM      30.00
PORTLAND       CLOUDY    45  43  93 CALM      30.00
CLARKSVILLE    CLOUDY    50  46  86 NW3       30.00F
LEBANON        CLOUDY    45  42  89 E3        29.99
SMYRNA         CLOUDY    47  45  93 CALM      30.02F
MURFREESBORO   CLOUDY    46  42  86 CALM      30.00
COOKEVILLE     PTCLDY    43  41  93 CALM      30.01F
LIVINGSTON     CLOUDY    44  41  89 CALM      30.01
GALLATIN       CLOUDY    45  43  93 CALM      30.01
CROSSVILLE     CLOUDY    41  38  89 CALM      30.00F
ROCKWOOD       CLOUDY    43  36  76 N7        29.99
$$

TNZ061-075-076-078-094-096-097-310800-
SOUTH MIDDLE TENNESSEE

CITY           SKY/WX    TMP DP  RH WIND       PRES   REMARKS
FAYETTEVILLE   CLEAR     45  39  81 MISG      30.01S
TULLAHOMA      PTCLDY    43  39  87 CALM      30.00F
WINCHESTER     MOCLDY    43  41  93 CALM      30.01F
MCMINNVILLE    CLEAR     43  43 100 CALM      30.01F
COLUMBIA       PTCLDY   N/A N/A N/A CALM      29.99F
SHELBYVILLE    CLOUDY    45  45 100 SE5       30.02S
$$

TNZ017-018-042-046-047-310800-
NORTHEAST TENNESSEE

CITY           SKY/WX    TMP DP  RH WIND       PRES   REMARKS
TRI CITIES     PTCLDY    37  36  96 N3        30.00S
ELIZABETHTON   SUNNY     34  34 100 CALM      29.99F
$$

TNZ012-013-036-069-073-074-310800-
CENTRAL EAST TENNESSEE

CITY           SKY/WX    TMP DP  RH WIND       PRES   REMARKS
KNOXVILLE      PTCLDY    42  40  92 CALM      30.00S
OAK RIDGE      CLEAR     41  38  89 CALM      30.02S
GATLINBURG     SUNNY     37  36  93 CALM      30.00F
MORRISTOWN     SUNNY     39  39 100 CALM      30.00F
$$

TNZ083-085-099-310800-
SOUTHEAST TENNESSEE

CITY           SKY/WX    TMP DP  RH WIND       PRES   REMARKS
CHATTANOOGA    PTCLDY    43  41  93 W3        30.01S
$$

SKY/WX REPORTED AS FAIR MEANS FEW OR NO CLOUDS BELOW
12 THOUSAND FEET.




USA.gov is the U.S. government's official web portal to all federal, state and local government web resources and services.